Temperatura - Umidità - Pioggia orarie del 24-08-2019

Intensità - Direzione vento orarie del 24-08-2019

Dati orari da stazione meteo del 24-08-2019

Nome Stazione Data Ora Temperatura [°C] Umidità [%] Pioggia [mm] Intensità vento[km/h] Direzione vento [°]
Savigliano 23-08-2019 02:00 17.1 87.7 0 0.7 204
Savigliano 23-08-2019 03:00 15.5 89.8 0 1.4 30
Savigliano 23-08-2019 04:00 15.1 88.9 0 0 30
Savigliano 23-08-2019 05:00 14.7 87.8 0 0.4 30
Savigliano 23-08-2019 06:00 14.5 87.8 0 0.4 30
Savigliano 23-08-2019 07:00 15 88.8 0 0.4 30
Savigliano 23-08-2019 08:00 14.8 89 0 1.4 31
Savigliano 23-08-2019 09:00 17.5 83.9 0 1.1 30
Savigliano 23-08-2019 10:00 20.9 75.3 0 0.4 30
Savigliano 23-08-2019 11:00 21.7 73.4 0 0.7 29
Savigliano 23-08-2019 12:00 23.6 66.7 0 1.1 30
Savigliano 23-08-2019 13:00 22.8 69.6 0 1.1 38
Savigliano 23-08-2019 14:00 22 76.6 0 1.1 36
Savigliano 23-08-2019 15:00 22.4 73.4 0 0.7 32
Savigliano 23-08-2019 16:00 24.4 68.6 0 2.5 30
Savigliano 23-08-2019 17:00 25.6 62.6 0 1.1 30
Savigliano 23-08-2019 18:00 25.1 62.9 0 1.1 29
Savigliano 23-08-2019 19:00 24.7 69.2 0 0.4 29
Savigliano 23-08-2019 20:00 23.9 68.6 0 0 29
Savigliano 23-08-2019 21:00 22.5 75.3 0 0 29
Savigliano 23-08-2019 22:00 22.2 77.1 0 0 29
Savigliano 23-08-2019 23:00 20.3 81.7 0 0 29
Savigliano 24-08-2019 00:00 19.7 82.5 0 0 29
Savigliano 24-08-2019 01:00 19.5 88.6 0 0.4 29
Savigliano 24-08-2019 02:00 17.7 86.7 0 0 29
Savigliano 24-08-2019 03:00 17.1 87.6 0 0 277
Savigliano 24-08-2019 04:00 17.4 89.6 0 0.4 258
Savigliano 24-08-2019 05:00 16.9 90.3 0 0 231
Savigliano 24-08-2019 06:00 17.3 88.5 0 0 231
Savigliano 24-08-2019 07:00 17.1 92.2 0 0 231
Savigliano 24-08-2019 08:00 17.1 93.2 0 0 229
Savigliano 24-08-2019 09:00 19.2 87.1 0 0 227
Savigliano 24-08-2019 10:00 21.9 74.3 0 0.4 247
Savigliano 24-08-2019 11:00 24.5 68.9 0 0.7 202
Savigliano 24-08-2019 12:00 24.9 68.5 0 1.8 98
Savigliano 24-08-2019 13:00 26.6 60.4 0 1.1 134
Savigliano 24-08-2019 14:00 26.5 53.8 0 2.5 163
Savigliano 24-08-2019 15:00 27.4 54 0 1.1 116
Savigliano 23-08-2019 13:50 0 0 0.1 0 0

Riassuntivo giornaliero del 24-08-2019